| time (UTC) | temp C | wind direction | speed KPH | gust KPH | rain 1hr cm | rain 24hr cm | rain mn cm | humidity % | barometer mb |
| 20260503021522 | -17 | 202 | 8.0 | 12.9 | 0.00 | 0.00 | 0.00 | 1001.4 | |
| 20260503020020 | -17 | 201 | 6.4 | 9.7 | 0.00 | 0.00 | 0.00 | 1001.5 | |
| 20260503014515 | -17 | 202 | 6.4 | 12.9 | 0.00 | 0.00 | 0.00 | 1001.6 | |
| 20260503013042 | -17 | 201 | 4.8 | 11.3 | 0.00 | 0.00 | 0.00 | 1001.7 | |
| 20260503011549 | -17 | 201 | 6.4 | 11.3 | 0.00 | 0.00 | 0.00 | 1001.9 | |
| 20260503010053 | -17 | 201 | 4.8 | 8.0 | 0.00 | 0.00 | 0.00 | 1001.9 | |
| 20260503004542 | -17 | 201 | 4.8 | 9.7 | 0.00 | 0.00 | 0.00 | 1002.0 | |
| 20260503003040 | -17 | 201 | 3.2 | 8.0 | 0.00 | 0.00 | 0.00 | 1002.1 | |
| 20260503001532 | -17 | 201 | 4.8 | 8.0 | 0.00 | 0.00 | 0.00 | 1002.2 | |
| 20260503000027 | -17 | 201 | 3.2 | 8.0 | 0.00 | 0.00 | 0.00 | 1002.3 | |
| 20260502234523 | -17 | 201 | 3.2 | 6.4 | 0.00 | 0.00 | 0.00 | 1002.4 | |
| 20260502233010 | -17 | 201 | 4.8 | 9.7 | 0.00 | 0.00 | 0.00 | 1002.4 | |
| 20260502231503 | -17 | 201 | 4.8 | 8.0 | 0.00 | 0.00 | 0.00 | 1002.4 | |
| 20260502230116 | -17 | 201 | 3.2 | 8.0 | 0.00 | 0.00 | 0.00 | 1002.4 | |
| 20260502224555 | -17 | 201 | 3.2 | 9.7 | 0.00 | 0.00 | 0.00 | 1002.5 | |
| 20260502223050 | -17 | 201 | 4.8 | 9.7 | 0.00 | 0.00 | 0.00 | 1002.5 | |
| 20260502221546 | -17 | 201 | 3.2 | 9.7 | 0.00 | 0.00 | 0.00 | 1002.6 | |
| 20260502220041 | -17 | 202 | 3.2 | 8.0 | 0.00 | 0.00 | 0.00 | 1002.7 | |
| 20260502214536 | -17 | 202 | 4.8 | 6.4 | 0.00 | 0.00 | 0.00 | 1002.7 | |
| 20260502213025 | -17 | 202 | 3.2 | 6.4 | 0.00 | 0.00 | 0.00 | 1002.7 | |
| 20260502211517 | -17 | 202 | 3.2 | 8.0 | 0.00 | 0.00 | 0.00 | 1002.8 | |
| 20260502210012 | -17 | 202 | 3.2 | 8.0 | 0.00 | 0.00 | 0.00 | 1002.9 | |
| 20260502204515 | -17 | 202 | 3.2 | 4.8 | 0.00 | 0.00 | 0.00 | 1002.9 | |
| 20260502203007 | -17 | 203 | 6.4 | 11.3 | 0.00 | 0.00 | 0.00 | 1002.9 | |
| 20260502201559 | -17 | 203 | 8.0 | 12.9 | 0.00 | 0.00 | 0.00 | 1002.9 | |
| 20260502200057 | -17 | 203 | 8.0 | 11.3 | 0.00 | 0.00 | 0.00 | 1003.0 | |
| 20260502194554 | -17 | 203 | 4.8 | 12.9 | 0.00 | 0.00 | 0.00 | 1003.0 | |
| 20260502193035 | -17 | 202 | 1.6 | 6.4 | 0.00 | 0.00 | 0.00 | 1003.0 | |
| 20260502191530 | -17 | 202 | 3.2 | 9.7 | 0.00 | 0.00 | 0.00 | 1003.0 | |
| 20260502190028 | -17 | 204 | 4.8 | 8.0 | 0.00 | 0.00 | 0.00 | 1003.1 | |
| 20260502184528 | -17 | 204 | 4.8 | 8.0 | 0.00 | 0.00 | 0.00 | 1003.2 | |
| 20260502183017 | -17 | 204 | 4.8 | 8.0 | 0.00 | 0.00 | 0.00 | 1003.2 | |
| 20260502181513 | -17 | 203 | 4.8 | 9.7 | 0.00 | 0.00 | 0.00 | 1003.2 | |
| 20260502163102 | -17 | 204 | 6.4 | 14.5 | 0.00 | 0.00 | 0.00 | 1003.5 | |
| 20260502161555 | -17 | 204 | 6.4 | 14.5 | 0.00 | 0.00 | 0.00 | 1003.7 | |
| 20260502151512 | -17 | 205 | 9.7 | 17.7 | 0.00 | 0.00 | 0.00 | 1004.3 | |
| 20260502123101 | -17 | 243 | 8.0 | 20.9 | 0.00 | 0.00 | 0.00 | 1005.7 | |
| 20260502121532 | -17 | 241 | 14.5 | 20.9 | 0.00 | 0.00 | 0.00 | 1006.0 | |
| 20260502114522 | -17 | 243 | 11.3 | 17.7 | 0.00 | 0.00 | 0.00 | 1006.5 | |
| 20260502113048 | -17 | 242 | 14.5 | 19.3 | 0.00 | 0.00 | 0.00 | 1006.6 | |
| 20260502111505 | -17 | 241 | 12.9 | 20.9 | 0.00 | 0.00 | 0.00 | 1006.6 | |
| 20260502110100 | -17 | 242 | 6.4 | 19.3 | 0.00 | 0.00 | 0.00 | 1006.5 | |
| 20260502104531 | -17 | 240 | 12.9 | 19.3 | 0.00 | 0.00 | 0.00 | 1006.5 | |
| 20260502103031 | -17 | 241 | 14.5 | 24.1 | 0.00 | 0.00 | 0.00 | 1006.4 | |
| 20260502101529 | -17 | 241 | 8.0 | 22.5 | 0.00 | 0.00 | 0.00 | 1006.5 | |
| 20260502071532 | -17 | 232 | 12.9 | 22.5 | 0.00 | 0.00 | 0.00 | 1007.3 | |
| 20260502070040 | -17 | 232 | 9.7 | 16.1 | 0.00 | 0.00 | 0.00 | 1007.4 | |
| 20260502064533 | -17 | 232 | 6.4 | 16.1 | 0.00 | 0.00 | 0.00 | 1007.3 | |
| 20260502063027 | -17 | 231 | 9.7 | 17.7 | 0.00 | 0.00 | 0.00 | 1007.3 | |
| 20260502061556 | -17 | 231 | 9.7 | 17.7 | 0.00 | 0.00 | 0.00 | 1007.2 | |
| 20260502060054 | -17 | 232 | 9.7 | 16.1 | 0.00 | 0.00 | 0.00 | 1007.1 | |
| 20260502054548 | -17 | 232 | 9.7 | 17.7 | 0.00 | 0.00 | 0.00 | 1007.1 | |
| 20260502053053 | -17 | 232 | 11.3 | 16.1 | 0.00 | 0.00 | 0.00 | 1007.2 | |
| 20260502051537 | -17 | 232 | 8.0 | 19.3 | 0.00 | 0.00 | 0.00 | 1007.3 | |
| 20260502050003 | -17 | 232 | 14.5 | 22.5 | 0.00 | 0.00 | 0.00 | 1007.3 | |
| 20260502044559 | -17 | 231 | 11.3 | 19.3 | 0.00 | 0.00 | 0.00 | 1007.3 | |
| 20260502043058 | -17 | 231 | 12.9 | 24.1 | 0.00 | 0.00 | 0.00 | 1007.3 | |
| 20260502041552 | -17 | 230 | 14.5 | 24.1 | 0.00 | 0.00 | 0.00 | 1007.4 | |
| 20260502040006 | -17 | 230 | 11.3 | 22.5 | 0.00 | 0.00 | 0.00 | 1007.4 | |
| 20260502034557 | -17 | 230 | 14.5 | 24.1 | 0.00 | 0.00 | 0.00 | 1007.4 | |
| 20260502033048 | -17 | 229 | 16.1 | 24.1 | 0.00 | 0.00 | 0.00 | 1007.5 | |
| 20260502031544 | -17 | 228 | 17.7 | 29.0 | 0.00 | 0.00 | 0.00 | 1007.5 | |
| 20260502030042 | -17 | 226 | 16.1 | 25.7 | 0.00 | 0.00 | 0.00 | 1007.7 | |
| 20260502024537 | -17 | 223 | 12.9 | 24.1 | 0.00 | 0.00 | 0.00 | 1007.8 | |
| 20260502023054 | -17 | 223 | 14.5 | 22.5 | 0.00 | 0.00 | 0.00 | 1007.9 |